Location: PSU-Greenbush Astrophysical Observatory
(37.5140°N, 94.9880°W)
Time: 06:23:40
(UTC-05:00)

BEESAT - Pass Details

Date: 27 February 2020
Orbit: 700 x 709 km, 98.6° (Epoch: 06 April)

Event Time Altitude Azimuth Distance (km) Brightness Sun altitude
Rises 04:58:49 0° 156° (SSE) 3,084 ? -23.7°
Reaches altitude 10° 05:01:05 10° 153° (SSE) 2,168 ? -23.3°
Maximum altitude 05:05:45 60° 74° (ENE) 807 ? -22.4°
Drops below altitude 10° 05:10:26 10° 355° (N) 2,177 ? -21.4°
Sets 05:12:43 0° 352° (N) 3,098 ? -21.0°
